Time,TemperatureF,DewpointF,PressureIn,WindDirection,WindDirectionDegrees,WindSpeedMPH,WindSpeedGustMPH,Humidity,HourlyPrecipIn,Conditions,Clouds,dailyrainin,SolarRadiationWatts/m^2,SoftwareType,DateUTC
2013-02-24 00:04:00,45.5,37.3,30.20,WSW,248,0.0,0.0,73,0.00,CLR,,0.00,0.0,WeatherDisplay:10.37,2013-02-24 08:04:00,
2013-02-24 00:09:00,45.5,37.3,30.21,WSW,248,0.0,0.0,73,0.00,CLR,,0.00,0.0,WeatherDisplay:10.37,2013-02-24 08:09:00,
2013-02-24 00:14:00,45.1,37.0,30.21,WSW,248,0.0,0.0,73,0.00,CLR,,0.00,0.0,WeatherDisplay:10.37,2013-02-24 08:14:00,
2013-02-24 00:19:00,45.1,37.0,30.21,WSW,248,0.0,0.0,73,0.00,CLR,,0.00,0.0,WeatherDisplay:10.37,2013-02-24 08:19:00,
2013-02-24 00:25:00,45.0,36.8,30.21,WSW,248,0.0,0.0,73,0.00,CLR,,0.00,0.0,WeatherDisplay:10.37,2013-02-24 08:25:00,
2013-02-24 00:30:00,45.1,37.0,30.21,WSW,248,0.0,0.0,73,0.00,CLR,,0.00,0.0,WeatherDisplay:10.37,2013-02-24 08:30:00,
2013-02-24 00:35:00,45.1,37.0,30.21,WSW,248,0.0,0.0,73,0.00,CLR,,0.00,0.0,WeatherDisplay:10.37,2013-02-24 08:35:00,
2013-02-24 00:40:00,45.0,36.8,30.21,WSW,248,0.0,0.0,73,0.00,CLR,,0.00,0.0,WeatherDisplay:10.37,2013-02-24 08:40:00,
2013-02-24 00:46:00,44.6,36.5,30.21,WSW,248,0.0,0.0,73,0.00,CLR,,0.00,0.0,WeatherDisplay:10.37,2013-02-24 08:46:00,
2013-02-24 00:51:00,44.8,36.7,30.21,WSW,248,0.0,0.0,73,0.00,CLR,,0.00,0.0,WeatherDisplay:10.37,2013-02-24 08:51:00,
2013-02-24 00:56:00,44.4,36.6,30.21,WSW,248,0.0,0.0,74,0.00,CLR,,0.00,0.0,WeatherDisplay:10.37,2013-02-24 08:56:00,
2013-02-24 01:01:00,44.6,36.8,30.21,WSW,248,0.0,0.0,74,0.00,CLR,,0.00,0.0,WeatherDisplay:10.37,2013-02-24 09:01:00,
2013-02-24 01:06:00,45.0,37.8,30.21,WSW,248,0.0,0.0,76,0.00,CLR,,0.00,0.0,WeatherDisplay:10.37,2013-02-24 09:06:00,
2013-02-24 01:11:00,44.8,37.7,30.21,WSW,248,0.0,0.0,76,0.00,CLR,,0.00,0.0,WeatherDisplay:10.37,2013-02-24 09:11:00,
2013-02-24 01:16:00,44.6,37.2,30.21,WSW,248,0.0,0.0,75,0.00,CLR,,0.00,0.0,WeatherDisplay:10.37,2013-02-24 09:16:00,
2013-02-24 01:21:00,44.4,37.0,30.21,WSW,248,0.0,0.0,75,0.00,CLR,,0.00,0.0,WeatherDisplay:10.37,2013-02-24 09:21:00,
2013-02-24 01:27:00,44.4,37.0,30.20,WSW,248,0.0,0.0,75,0.00,CLR,,0.00,0.0,WeatherDisplay:10.37,2013-02-24 09:27:00,
2013-02-24 01:32:00,44.4,37.0,30.20,WSW,248,0.0,0.0,75,0.00,CLR,,0.00,0.0,WeatherDisplay:10.37,2013-02-24 09:32:00,
2013-02-24 01:37:00,44.4,37.3,30.20,WSW,248,0.0,0.0,76,0.00,CLR,,0.00,0.0,WeatherDisplay:10.37,2013-02-24 09:37:00,
2013-02-24 01:43:00,44.4,37.0,30.20,WSW,248,0.0,0.0,75,0.00,CLR,,0.00,0.0,WeatherDisplay:10.37,2013-02-24 09:43:00,
2013-02-24 01:48:00,44.8,38.0,30.19,WSW,248,0.0,0.0,77,0.00,CLR,,0.00,0.0,WeatherDisplay:10.37,2013-02-24 09:48:00,
2013-02-24 01:53:00,44.8,37.7,30.19,WSW,248,0.0,0.0,76,0.00,CLR,,0.00,0.0,WeatherDisplay:10.37,2013-02-24 09:53:00,
2013-02-24 01:58:00,44.6,37.8,30.19,WSW,248,0.0,0.0,77,0.00,CLR,,0.00,0.0,WeatherDisplay:10.37,2013-02-24 09:58:00,
2013-02-24 02:03:00,44.8,38.0,30.19,WSW,248,0.0,0.0,77,0.00,CLR,,0.00,0.0,WeatherDisplay:10.37,2013-02-24 10:03:00,
2013-02-24 02:08:00,44.6,37.8,30.17,WSW,248,0.0,0.0,77,0.00,CLR,,0.00,0.0,WeatherDisplay:10.37,2013-02-24 10:08:00,
2013-02-24 02:13:00,44.8,37.7,30.17,WSW,248,0.0,0.0,76,0.00,CLR,,0.00,0.0,WeatherDisplay:10.37,2013-02-24 10:13:00,
2013-02-24 02:18:00,45.1,37.7,30.17,WSW,248,0.0,0.0,75,0.00,CLR,,0.00,0.0,WeatherDisplay:10.37,2013-02-24 10:18:00,
2013-02-24 02:24:00,45.7,37.5,30.17,WSW,248,0.0,0.0,73,0.00,CLR,,0.00,0.0,WeatherDisplay:10.37,2013-02-24 10:24:00,
2013-02-24 02:29:00,46.0,37.5,30.15,WSW,248,0.0,0.0,72,0.00,CLR,,0.00,0.0,WeatherDisplay:10.37,2013-02-24 10:29:00,
2013-02-24 02:34:00,46.4,37.5,30.15,WSW,248,0.0,0.0,71,0.00,CLR,,0.00,0.0,WeatherDisplay:10.37,2013-02-24 10:34:00,
2013-02-24 02:39:00,46.6,37.0,30.15,WSW,248,0.0,0.0,69,0.00,CLR,,0.00,0.0,WeatherDisplay:10.37,2013-02-24 10:39:00,
2013-02-24 02:44:00,46.9,36.9,30.15,WSW,248,0.0,0.0,68,0.00,CLR,,0.00,0.0,WeatherDisplay:10.37,2013-02-24 10:44:00,
2013-02-24 02:49:00,47.1,36.7,30.15,WSW,248,0.0,0.0,67,0.00,CLR,,0.00,0.0,WeatherDisplay:10.37,2013-02-24 10:49:00,
2013-02-24 02:54:00,47.1,36.3,30.15,WSW,248,0.0,0.0,66,0.00,CLR,,0.00,0.0,WeatherDisplay:10.37,2013-02-24 10:54:00,
2013-02-24 02:59:00,47.1,36.0,30.15,WSW,248,0.0,0.0,65,0.00,CLR,,0.00,0.0,WeatherDisplay:10.37,2013-02-24 10:59:00,
2013-02-24 03:04:00,47.1,35.2,30.15,WSW,248,0.0,0.0,63,0.00,CLR,,0.00,0.0,WeatherDisplay:10.37,2013-02-24 11:04:00,
2013-02-24 03:09:00,47.1,35.2,30.14,WSW,248,0.0,0.0,63,0.00,CLR,,0.00,0.0,WeatherDisplay:10.37,2013-02-24 11:09:00,
2013-02-24 03:14:00,47.7,34.0,30.14,WSW,248,0.0,0.0,59,0.00,CLR,,0.00,0.0,WeatherDisplay:10.37,2013-02-24 11:14:00,
2013-02-24 03:20:00,47.7,33.6,30.14,WSW,248,0.0,0.0,58,0.00,CLR,,0.00,0.0,WeatherDisplay:10.37,2013-02-24 11:20:00,
2013-02-24 03:25:00,48.0,32.2,30.14,WSW,248,0.0,0.0,54,0.00,CLR,,0.00,0.0,WeatherDisplay:10.37,2013-02-24 11:25:00,
2013-02-24 03:30:00,48.0,31.7,30.14,WSW,248,0.0,0.0,53,0.00,CLR,,0.00,0.0,WeatherDisplay:10.37,2013-02-24 11:30:00,
2013-02-24 03:35:00,48.4,31.5,30.14,WSW,248,0.0,0.0,52,0.00,CLR,,0.00,0.0,WeatherDisplay:10.37,2013-02-24 11:35:00,
2013-02-24 03:40:00,48.4,32.0,30.14,WSW,248,0.0,0.0,53,0.00,CLR,,0.00,0.0,WeatherDisplay:10.37,2013-02-24 11:40:00,
2013-02-24 03:45:00,48.4,31.1,30.14,WSW,248,0.0,0.0,51,0.00,CLR,,0.00,0.0,WeatherDisplay:10.37,2013-02-24 11:45:00,
2013-02-24 03:50:00,48.6,30.7,30.14,WSW,248,0.0,0.0,50,0.00,CLR,,0.00,0.0,WeatherDisplay:10.37,2013-02-24 11:50:00,
2013-02-24 03:55:00,48.7,30.9,30.14,WSW,248,0.0,0.0,50,0.00,CLR,,0.00,0.0,WeatherDisplay:10.37,2013-02-24 11:55:00,
2013-02-24 04:00:00,48.7,30.9,30.14,WSW,248,0.0,0.0,50,0.00,CLR,,0.00,0.0,WeatherDisplay:10.37,2013-02-24 12:00:00,
2013-02-24 04:05:00,48.6,31.2,30.14,WSW,248,0.0,0.0,51,0.00,CLR,,0.00,0.0,WeatherDisplay:10.37,2013-02-24 12:05:00,
2013-02-24 04:11:00,48.7,30.9,30.14,WSW,248,0.0,0.0,50,0.00,CLR,,0.00,0.0,WeatherDisplay:10.37,2013-02-24 12:11:00,
2013-02-24 04:16:00,48.6,29.7,30.14,WSW,248,0.0,0.0,48,0.00,CLR,,0.00,0.0,WeatherDisplay:10.37,2013-02-24 12:16:00,
2013-02-24 04:21:00,48.9,30.1,30.14,WSW,248,0.0,0.0,48,0.00,CLR,,0.00,0.0,WeatherDisplay:10.37,2013-02-24 12:21:00,
2013-02-24 04:26:00,49.1,29.7,30.14,WSW,248,0.0,0.0,47,0.00,CLR,,0.00,0.0,WeatherDisplay:10.37,2013-02-24 12:26:00,
2013-02-24 04:31:00,49.1,30.2,30.14,WSW,248,0.0,0.0,48,0.00,CLR,,0.00,0.0,WeatherDisplay:10.37,2013-02-24 12:31:00,
2013-02-24 04:36:00,49.1,29.7,30.14,WSW,248,0.0,0.0,47,0.00,CLR,,0.00,0.0,WeatherDisplay:10.37,2013-02-24 12:36:00,
2013-02-24 04:41:00,49.1,29.7,30.14,WSW,248,0.0,0.0,47,0.00,CLR,,0.00,0.0,WeatherDisplay:10.37,2013-02-24 12:41:00,
2013-02-24 04:47:00,49.1,29.7,30.15,WSW,248,0.0,0.0,47,0.00,CLR,,0.00,0.0,WeatherDisplay:10.37,2013-02-24 12:47:00,
2013-02-24 04:52:00,49.1,29.7,30.15,WSW,248,0.0,0.0,47,0.00,CLR,,0.00,0.0,WeatherDisplay:10.37,2013-02-24 12:52:00,
2013-02-24 04:57:00,49.1,29.2,30.15,WSW,248,0.0,0.0,46,0.00,CLR,,0.00,0.0,WeatherDisplay:10.37,2013-02-24 12:57:00,
2013-02-24 05:02:00,49.1,29.2,30.15,WSW,248,0.0,0.0,46,0.00,CLR,,0.00,0.0,WeatherDisplay:10.37,2013-02-24 13:02:00,
2013-02-24 05:07:00,49.1,29.2,30.15,WSW,248,0.0,0.0,46,0.00,CLR,,0.00,0.0,WeatherDisplay:10.37,2013-02-24 13:07:00,
2013-02-24 05:12:00,49.1,28.7,30.15,WSW,248,0.0,0.0,45,0.00,CLR,,0.00,0.0,WeatherDisplay:10.37,2013-02-24 13:12:00,
2013-02-24 05:17:00,49.1,29.2,30.15,WSW,248,0.0,0.0,46,0.00,CLR,,0.00,0.0,WeatherDisplay:10.37,2013-02-24 13:17:00,
2013-02-24 05:22:00,48.7,28.3,30.15,WSW,248,0.0,0.0,45,0.00,CLR,,0.00,0.0,WeatherDisplay:10.37,2013-02-24 13:22:00,
2013-02-24 05:27:00,48.7,28.3,30.16,WSW,248,0.0,0.0,45,0.00,CLR,,0.00,0.0,WeatherDisplay:10.37,2013-02-24 13:27:00,
2013-02-24 05:32:00,48.9,28.5,30.16,WSW,248,0.0,0.0,45,0.00,CLR,,0.00,0.0,WeatherDisplay:10.37,2013-02-24 13:32:00,
2013-02-24 05:37:00,48.9,27.9,30.16,WSW,248,0.0,0.0,44,0.00,CLR,,0.00,0.0,WeatherDisplay:10.37,2013-02-24 13:37:00,
2013-02-24 05:42:00,48.9,27.9,30.16,WSW,248,0.0,0.0,44,0.00,CLR,,0.00,0.0,WeatherDisplay:10.37,2013-02-24 13:42:00,
2013-02-24 05:48:00,48.9,27.4,30.15,WSW,248,0.0,0.0,43,0.00,CLR,,0.00,0.0,WeatherDisplay:10.37,2013-02-24 13:48:00,
2013-02-24 05:53:00,49.1,27.5,30.15,WSW,248,0.0,0.0,43,0.00,CLR,,0.00,0.0,WeatherDisplay:10.37,2013-02-24 13:53:00,
2013-02-24 05:58:00,49.1,27.5,30.15,WSW,248,0.0,0.0,43,0.00,CLR,,0.00,0.0,WeatherDisplay:10.37,2013-02-24 13:58:00,
2013-02-24 06:03:00,48.9,27.4,30.15,WSW,248,0.0,0.0,43,0.00,CLR,,0.00,0.0,WeatherDisplay:10.37,2013-02-24 14:03:00,
2013-02-24 06:09:00,48.9,27.4,30.17,WSW,248,0.0,0.0,43,0.00,CLR,,0.00,0.0,WeatherDisplay:10.37,2013-02-24 14:09:00,
2013-02-24 06:14:00,48.9,27.4,30.17,WSW,248,0.0,0.0,43,0.00,CLR,,0.00,0.0,WeatherDisplay:10.37,2013-02-24 14:14:00,
2013-02-24 06:19:00,48.9,26.8,30.17,WSW,248,0.0,0.0,42,0.00,OVC,,0.00,0.0,WeatherDisplay:10.37,2013-02-24 14:19:00,
2013-02-24 06:24:00,49.1,27.5,30.17,WSW,248,0.0,0.0,43,0.00,OVC,,0.00,0.0,WeatherDisplay:10.37,2013-02-24 14:24:00,
2013-02-24 06:29:00,49.1,27.5,30.17,WSW,248,0.0,0.0,43,0.00,OVC,,0.00,0.0,WeatherDisplay:10.37,2013-02-24 14:29:00,
2013-02-24 06:34:00,48.9,27.4,30.17,WSW,248,0.0,0.0,43,0.00,OVC,,0.00,0.0,WeatherDisplay:10.37,2013-02-24 14:34:00,
2013-02-24 06:40:00,48.9,27.4,30.17,WSW,248,0.0,0.0,43,0.00,OVC,,0.00,0.0,WeatherDisplay:10.37,2013-02-24 14:40:00,
2013-02-24 06:45:00,49.1,27.0,30.17,WSW,248,0.0,0.0,42,0.00,OVC,,0.00,0.0,WeatherDisplay:10.37,2013-02-24 14:45:00,
2013-02-24 06:50:00,49.1,27.5,30.18,WSW,248,0.0,0.0,43,0.00,OVC,,0.00,0.0,WeatherDisplay:10.37,2013-02-24 14:50:00,
2013-02-24 06:55:00,48.9,26.8,30.18,WSW,248,0.0,0.0,42,0.00,OVC,,0.00,0.0,WeatherDisplay:10.37,2013-02-24 14:55:00,
2013-02-24 07:00:00,48.9,26.8,30.18,WSW,248,0.0,0.0,42,0.00,OVC,,0.00,0.0,WeatherDisplay:10.37,2013-02-24 15:00:00,
2013-02-24 07:05:00,49.1,27.5,30.18,WSW,248,0.0,0.0,43,0.00,OVC,,0.00,0.0,WeatherDisplay:10.37,2013-02-24 15:05:00,
2013-02-24 07:11:00,49.5,27.9,30.19,WSW,248,0.0,0.0,43,0.00,OVC,,0.00,0.0,WeatherDisplay:10.37,2013-02-24 15:11:00,
2013-02-24 07:16:00,49.3,27.7,30.19,WSW,248,0.0,0.0,43,0.00,OVC,,0.00,0.0,WeatherDisplay:10.37,2013-02-24 15:16:00,
2013-02-24 07:21:00,49.5,28.4,30.19,WSW,248,0.0,0.0,44,0.00,OVC,,0.00,0.0,WeatherDisplay:10.37,2013-02-24 15:21:00,
2013-02-24 07:26:00,49.8,27.6,30.20,WSW,248,0.0,0.0,42,0.00,OVC,,0.00,0.0,WeatherDisplay:10.37,2013-02-24 15:26:00,
2013-02-24 07:31:00,49.8,28.2,30.20,WSW,248,0.0,0.0,43,0.00,OVC,,0.00,0.0,WeatherDisplay:10.37,2013-02-24 15:31:00,
2013-02-24 07:36:00,49.8,27.6,30.20,WSW,248,0.0,0.0,42,0.00,OVC,,0.00,0.0,WeatherDisplay:10.37,2013-02-24 15:36:00,
2013-02-24 07:41:00,50.0,28.4,30.20,WSW,248,0.0,0.0,43,0.00,OVC,,0.00,0.0,WeatherDisplay:10.37,2013-02-24 15:41:00,
2013-02-24 07:46:00,50.2,29.1,30.21,WSW,248,0.0,0.0,44,0.00,OVC,,0.00,0.0,WeatherDisplay:10.37,2013-02-24 15:46:00,
2013-02-24 07:51:00,50.2,29.1,30.21,WSW,248,0.0,0.0,44,0.00,OVC,,0.00,0.0,WeatherDisplay:10.37,2013-02-24 15:51:00,
2013-02-24 07:56:00,50.0,28.9,30.21,WSW,248,0.0,0.0,44,0.00,OVC,,0.00,0.0,WeatherDisplay:10.37,2013-02-24 15:56:00,
2013-02-24 08:01:00,50.0,29.5,30.21,WSW,248,0.0,0.0,45,0.00,OVC,,0.00,0.0,WeatherDisplay:10.37,2013-02-24 16:01:00,
2013-02-24 08:07:00,50.2,29.1,30.22,WSW,248,0.0,0.0,44,0.00,OVC,,0.00,0.0,WeatherDisplay:10.37,2013-02-24 16:07:00,
2013-02-24 08:12:00,50.2,28.5,30.22,WSW,248,0.0,0.0,43,0.00,OVC,,0.00,0.0,WeatherDisplay:10.37,2013-02-24 16:12:00,
2013-02-24 08:17:00,50.4,28.7,30.22,WSW,248,0.0,0.0,43,0.00,OVC,,0.00,0.0,WeatherDisplay:10.37,2013-02-24 16:17:00,
2013-02-24 08:22:00,50.4,31.9,30.22,WSW,248,0.0,0.0,49,0.00,OVC,,0.00,0.0,WeatherDisplay:10.37,2013-02-24 16:22:00,
2013-02-24 08:27:00,50.2,33.2,30.22,WSW,248,0.0,0.0,52,0.00,OVC,,0.00,0.0,WeatherDisplay:10.37,2013-02-24 16:27:00,
2013-02-24 08:33:00,50.5,34.0,30.22,WSW,248,0.0,0.0,53,0.00,OVC,,0.00,0.0,WeatherDisplay:10.37,2013-02-24 16:33:00,
2013-02-24 08:38:00,50.4,33.4,30.22,WSW,248,0.0,0.0,52,0.00,OVC,,0.00,0.0,WeatherDisplay:10.37,2013-02-24 16:38:00,
2013-02-24 08:43:00,50.7,35.1,30.22,WSW,248,0.0,0.0,55,0.00,OVC,,0.00,0.0,WeatherDisplay:10.37,2013-02-24 16:43:00,
2013-02-24 08:48:00,50.9,35.3,30.22,WSW,248,0.0,0.0,55,0.00,OVC,,0.00,0.0,WeatherDisplay:10.37,2013-02-24 16:48:00,
2013-02-24 08:53:00,50.7,35.1,30.22,WSW,248,0.0,0.0,55,0.00,OVC,,0.00,0.0,WeatherDisplay:10.37,2013-02-24 16:53:00,
2013-02-24 08:58:00,50.9,35.7,30.22,WSW,248,0.0,0.0,56,0.00,OVC,,0.00,0.0,WeatherDisplay:10.37,2013-02-24 16:58:00,
2013-02-24 09:03:00,51.1,36.8,30.22,WSW,248,0.0,0.0,58,0.00,OVC,,0.00,0.0,WeatherDisplay:10.37,2013-02-24 17:03:00,
2013-02-24 09:08:00,51.3,37.0,30.23,WSW,248,0.0,0.0,58,0.00,OVC,,0.00,0.0,WeatherDisplay:10.37,2013-02-24 17:08:00,
2013-02-24 09:13:00,51.6,36.9,30.23,WSW,248,0.0,0.0,57,0.00,OVC,,0.00,0.0,WeatherDisplay:10.37,2013-02-24 17:13:00,
2013-02-24 09:18:00,52.0,36.3,30.23,WSW,248,0.0,0.0,55,0.00,OVC,,0.00,0.0,WeatherDisplay:10.37,2013-02-24 17:18:00,
2013-02-24 09:24:00,52.2,35.5,30.23,WSW,248,0.0,0.0,53,0.00,OVC,,0.00,0.0,WeatherDisplay:10.37,2013-02-24 17:24:00,
2013-02-24 09:29:00,52.5,35.4,30.24,WSW,248,0.0,0.0,52,0.00,OVC,,0.00,0.0,WeatherDisplay:10.37,2013-02-24 17:29:00,
2013-02-24 09:34:00,52.9,38.1,30.24,WSW,248,0.0,0.0,57,0.00,OVC,,0.00,0.0,WeatherDisplay:10.37,2013-02-24 17:34:00,
2013-02-24 09:39:00,53.1,37.8,30.24,WSW,248,0.0,0.0,56,0.00,OVC,,0.00,0.0,WeatherDisplay:10.37,2013-02-24 17:39:00,
2013-02-24 09:44:00,53.8,38.4,30.24,WSW,248,0.0,0.0,56,0.00,OVC,,0.00,0.0,WeatherDisplay:10.37,2013-02-24 17:44:00,
2013-02-24 09:49:00,54.3,39.8,30.24,WSW,248,0.0,0.0,58,0.00,OVC,,0.00,0.0,WeatherDisplay:10.37,2013-02-24 17:49:00,
2013-02-24 09:54:00,54.5,39.6,30.24,WSW,248,0.0,0.0,57,0.00,OVC,,0.00,0.0,WeatherDisplay:10.37,2013-02-24 17:54:00,
2013-02-24 10:00:00,54.9,39.5,30.24,WSW,248,0.0,0.0,56,0.00,OVC,,0.00,0.0,WeatherDisplay:10.37,2013-02-24 18:00:00,
2013-02-24 10:05:00,55.6,39.7,30.24,WSW,248,0.0,0.0,55,0.00,OVC,,0.00,0.0,WeatherDisplay:10.37,2013-02-24 18:05:00,
2013-02-24 10:10:00,55.6,39.2,30.24,WSW,248,0.0,0.0,54,0.00,OVC,,0.00,0.0,WeatherDisplay:10.37,2013-02-24 18:10:00,
2013-02-24 10:15:00,55.8,39.4,30.24,WSW,248,0.0,0.0,54,0.00,OVC,,0.00,0.0,WeatherDisplay:10.37,2013-02-24 18:15:00,
2013-02-24 10:20:00,55.9,39.0,30.24,WSW,248,0.0,0.0,53,0.00,OVC,,0.00,0.0,WeatherDisplay:10.37,2013-02-24 18:20:00,
2013-02-24 10:25:00,56.3,39.4,30.24,WSW,248,0.0,0.0,53,0.00,OVC,,0.00,0.0,WeatherDisplay:10.37,2013-02-24 18:25:00,
2013-02-24 10:30:00,56.3,38.9,30.24,WSW,248,0.0,0.0,52,0.00,OVC,,0.00,0.0,WeatherDisplay:10.37,2013-02-24 18:30:00,
2013-02-24 10:35:00,56.7,39.7,30.24,WSW,248,0.0,0.0,53,0.00,OVC,,0.00,0.0,WeatherDisplay:10.37,2013-02-24 18:35:00,
2013-02-24 10:40:00,57.0,40.0,30.24,WSW,248,0.0,0.0,53,0.00,OVC,,0.00,0.0,WeatherDisplay:10.37,2013-02-24 18:40:00,
2013-02-24 10:45:00,57.0,39.6,30.24,WSW,248,0.0,0.0,52,0.00,OVC,,0.00,0.0,WeatherDisplay:10.37,2013-02-24 18:45:00,
2013-02-24 10:50:00,56.8,39.9,30.22,WSW,248,0.0,0.0,53,0.00,OVC,,0.00,0.0,WeatherDisplay:10.37,2013-02-24 18:50:00,
2013-02-24 10:55:00,57.0,39.6,30.22,WSW,248,0.0,0.0,52,0.00,OVC,,0.00,0.0,WeatherDisplay:10.37,2013-02-24 18:55:00,
2013-02-24 11:00:00,57.0,39.1,30.22,WSW,248,0.0,0.0,51,0.00,OVC,,0.00,0.0,WeatherDisplay:10.37,2013-02-24 19:00:00,
2013-02-24 11:05:00,57.4,39.9,30.22,WSW,248,0.0,0.0,52,0.00,OVC,,0.00,0.0,WeatherDisplay:10.37,2013-02-24 19:05:00,
2013-02-24 11:10:00,57.4,38.4,30.22,WSW,248,0.0,0.0,49,0.00,OVC,,0.00,0.0,WeatherDisplay:10.37,2013-02-24 19:10:00,
2013-02-24 11:16:00,57.7,39.2,30.22,WSW,248,0.0,0.0,50,0.00,OVC,,0.00,0.0,WeatherDisplay:10.37,2013-02-24 19:16:00,
2013-02-24 11:21:00,57.7,38.7,30.22,WSW,248,0.0,0.0,49,0.00,OVC,,0.00,0.0,WeatherDisplay:10.37,2013-02-24 19:21:00,
2013-02-24 11:26:00,58.1,38.5,30.21,WSW,248,0.0,0.0,48,0.00,OVC,,0.00,0.0,WeatherDisplay:10.37,2013-02-24 19:26:00,
2013-02-24 11:31:00,57.9,37.8,30.21,WSW,248,0.0,0.0,47,0.00,OVC,,0.00,0.0,WeatherDisplay:10.37,2013-02-24 19:31:00,
2013-02-24 11:36:00,57.7,37.6,30.21,WSW,248,0.0,0.0,47,0.00,OVC,,0.00,0.0,WeatherDisplay:10.37,2013-02-24 19:36:00,
2013-02-24 11:41:00,58.1,39.0,30.21,WSW,248,0.0,0.0,49,0.00,OVC,,0.00,0.0,WeatherDisplay:10.37,2013-02-24 19:41:00,
2013-02-24 11:46:00,58.3,39.7,30.21,WSW,248,0.0,0.0,50,0.00,OVC,,0.00,0.0,WeatherDisplay:10.37,2013-02-24 19:46:00,
2013-02-24 11:51:00,58.5,39.9,30.21,WSW,248,0.0,0.0,50,0.00,OVC,,0.00,0.0,WeatherDisplay:10.37,2013-02-24 19:51:00,
2013-02-24 11:56:00,58.5,38.3,30.21,WSW,248,0.0,0.0,47,0.00,OVC,,0.00,0.0,WeatherDisplay:10.37,2013-02-24 19:56:00,
2013-02-24 12:02:00,58.5,39.4,30.21,WSW,248,0.0,0.0,49,0.00,OVC,,0.00,0.0,WeatherDisplay:10.37,2013-02-24 20:02:00,
2013-02-24 12:07:00,58.6,39.5,30.21,WSW,248,0.0,0.0,49,0.00,OVC,,0.00,0.0,WeatherDisplay:10.37,2013-02-24 20:07:00,
2013-02-24 12:12:00,58.3,38.7,30.21,WSW,248,0.0,0.0,48,0.00,OVC,,0.00,0.0,WeatherDisplay:10.37,2013-02-24 20:12:00,
2013-02-24 12:17:00,58.8,39.2,30.21,WSW,248,0.0,0.0,48,0.00,OVC,,0.00,0.0,WeatherDisplay:10.37,2013-02-24 20:17:00,
2013-02-24 12:22:00,58.8,38.6,30.21,WSW,248,0.0,0.0,47,0.00,OVC,,0.00,0.0,WeatherDisplay:10.37,2013-02-24 20:22:00,
2013-02-24 12:27:00,58.8,39.2,30.20,WSW,248,0.0,0.0,48,0.00,OVC,,0.00,0.0,WeatherDisplay:10.37,2013-02-24 20:27:00,
2013-02-24 12:32:00,59.2,38.4,30.20,WSW,248,0.0,0.0,46,0.00,OVC,,0.00,0.0,WeatherDisplay:10.37,2013-02-24 20:32:00,
2013-02-24 12:37:00,59.4,37.4,30.20,WSW,248,0.0,0.0,44,0.00,OVC,,0.00,0.0,WeatherDisplay:10.37,2013-02-24 20:37:00,
2013-02-24 12:42:00,59.4,38.0,30.20,WSW,248,0.0,0.0,45,0.00,OVC,,0.00,0.0,WeatherDisplay:10.37,2013-02-24 20:42:00,
2013-02-24 12:48:00,59.5,37.6,30.19,WSW,248,0.0,0.0,44,0.00,OVC,,0.00,0.0,WeatherDisplay:10.37,2013-02-24 20:48:00,
2013-02-24 12:53:00,60.3,37.7,30.19,WSW,248,0.0,0.0,43,0.00,OVC,,0.00,0.0,WeatherDisplay:10.37,2013-02-24 20:53:00,
2013-02-24 12:58:00,60.1,36.9,30.19,WSW,248,0.0,0.0,42,0.00,OVC,,0.00,0.0,WeatherDisplay:10.37,2013-02-24 20:58:00,
2013-02-24 13:03:00,60.3,37.1,30.19,WSW,248,0.0,0.0,42,0.00,OVC,,0.00,0.0,WeatherDisplay:10.37,2013-02-24 21:03:00,
2013-02-24 13:09:00,60.6,37.4,30.19,WSW,248,0.0,0.0,42,0.00,OVC,,0.00,0.0,WeatherDisplay:10.37,2013-02-24 21:09:00,
2013-02-24 13:14:00,60.8,36.9,30.19,WSW,248,0.0,0.0,41,0.00,OVC,,0.00,0.0,WeatherDisplay:10.37,2013-02-24 21:14:00,
2013-02-24 13:19:00,61.0,37.7,30.19,WSW,248,0.0,0.0,42,0.00,OVC,,0.00,0.0,WeatherDisplay:10.37,2013-02-24 21:19:00,
2013-02-24 13:24:00,60.8,37.5,30.19,WSW,248,0.0,0.0,42,0.00,OVC,,0.00,0.0,WeatherDisplay:10.37,2013-02-24 21:24:00,
2013-02-24 13:29:00,61.0,37.1,30.18,WSW,248,0.0,0.0,41,0.00,OVC,,0.00,0.0,WeatherDisplay:10.37,2013-02-24 21:29:00,
2013-02-24 13:34:00,61.3,37.4,30.18,WSW,248,0.0,0.0,41,0.00,OVC,,0.00,0.0,WeatherDisplay:10.37,2013-02-24 21:34:00,
2013-02-24 13:40:00,61.3,36.2,30.18,WSW,248,0.0,0.0,39,0.00,OVC,,0.00,0.0,WeatherDisplay:10.37,2013-02-24 21:40:00,
2013-02-24 13:45:00,61.3,36.2,30.18,WSW,248,0.0,0.0,39,0.00,OVC,,0.00,0.0,WeatherDisplay:10.37,2013-02-24 21:45:00,
2013-02-24 13:50:00,61.3,36.8,30.17,WSW,248,0.0,0.0,40,0.00,OVC,,0.00,0.0,WeatherDisplay:10.37,2013-02-24 21:50:00,
2013-02-24 13:55:00,61.7,36.5,30.17,WSW,248,0.0,0.0,39,0.00,OVC,,0.00,0.0,WeatherDisplay:10.37,2013-02-24 21:55:00,
2013-02-24 14:00:00,62.4,37.1,30.17,WSW,248,0.0,0.0,39,0.00,OVC,,0.00,0.0,WeatherDisplay:10.37,2013-02-24 22:00:00,
2013-02-24 14:05:00,62.2,36.3,30.17,WSW,248,0.0,0.0,38,0.00,OVC,,0.00,0.0,WeatherDisplay:10.37,2013-02-24 22:05:00,
2013-02-24 14:11:00,62.4,37.1,30.17,WSW,248,0.0,0.0,39,0.00,OVC,,0.00,0.0,WeatherDisplay:10.37,2013-02-24 22:11:00,
2013-02-24 14:16:00,62.2,37.0,30.17,WSW,248,0.0,0.0,39,0.00,OVC,,0.00,0.0,WeatherDisplay:10.37,2013-02-24 22:16:00,
2013-02-24 14:21:00,62.2,37.6,30.17,WSW,248,0.0,0.0,40,0.00,OVC,,0.00,0.0,WeatherDisplay:10.37,2013-02-24 22:21:00,
2013-02-24 14:26:00,62.2,37.0,30.17,WSW,248,0.0,0.0,39,0.00,OVC,,0.00,0.0,WeatherDisplay:10.37,2013-02-24 22:26:00,
2013-02-24 14:31:00,62.2,37.0,30.17,WSW,248,0.0,0.0,39,0.00,OVC,,0.00,0.0,WeatherDisplay:10.37,2013-02-24 22:31:00,
2013-02-24 14:36:00,62.4,37.1,30.17,WSW,248,0.0,0.0,39,0.00,OVC,,0.00,0.0,WeatherDisplay:10.37,2013-02-24 22:36:00,
2013-02-24 14:41:00,62.4,37.8,30.17,WSW,248,0.0,0.0,40,0.00,OVC,,0.00,0.0,WeatherDisplay:10.37,2013-02-24 22:41:00,
2013-02-24 14:46:00,62.2,38.2,30.16,WSW,248,0.0,0.0,41,0.00,OVC,,0.00,0.0,WeatherDisplay:10.37,2013-02-24 22:46:00,
2013-02-24 14:51:00,62.1,37.4,30.16,WSW,248,0.0,0.0,40,0.00,OVC,,0.00,0.0,WeatherDisplay:10.37,2013-02-24 22:51:00,
2013-02-24 14:57:00,62.1,38.1,30.16,WSW,248,0.0,0.0,41,0.00,OVC,,0.00,0.0,WeatherDisplay:10.37,2013-02-24 22:57:00,
2013-02-24 15:02:00,61.7,38.4,30.16,WSW,248,0.0,0.0,42,0.00,OVC,,0.00,0.0,WeatherDisplay:10.37,2013-02-24 23:02:00,
2013-02-24 15:07:00,62.1,38.7,30.15,WSW,248,0.0,0.0,42,0.00,OVC,,0.00,0.0,WeatherDisplay:10.37,2013-02-24 23:07:00,
2013-02-24 15:12:00,62.1,39.3,30.15,WSW,248,0.0,0.0,43,0.00,OVC,,0.00,0.0,WeatherDisplay:10.37,2013-02-24 23:12:00,
2013-02-24 15:17:00,62.1,39.9,30.15,WSW,248,0.0,0.0,44,0.00,OVC,,0.00,0.0,WeatherDisplay:10.37,2013-02-24 23:17:00,
2013-02-24 15:22:00,61.9,40.3,30.15,WSW,248,0.0,0.0,45,0.00,OVC,,0.00,0.0,WeatherDisplay:10.37,2013-02-24 23:22:00,
2013-02-24 15:28:00,61.9,40.9,30.15,WSW,248,0.0,0.0,46,0.00,OVC,,0.00,0.0,WeatherDisplay:10.37,2013-02-24 23:28:00,
2013-02-24 15:33:00,62.1,40.5,30.15,WSW,248,0.0,0.0,45,0.00,OVC,,0.00,0.0,WeatherDisplay:10.37,2013-02-24 23:33:00,
2013-02-24 15:38:00,62.2,40.0,30.15,WSW,248,0.0,0.0,44,0.00,OVC,,0.00,0.0,WeatherDisplay:10.37,2013-02-24 23:38:00,
2013-02-24 15:43:00,62.4,39.0,30.15,WSW,248,0.0,0.0,42,0.00,OVC,,0.00,0.0,WeatherDisplay:10.37,2013-02-24 23:43:00,
2013-02-24 15:48:00,62.4,38.4,30.15,WSW,248,0.0,0.0,41,0.00,OVC,,0.00,0.0,WeatherDisplay:10.37,2013-02-24 23:48:00,
2013-02-24 15:53:00,62.4,37.8,30.15,WSW,248,0.0,0.0,40,0.00,OVC,,0.00,0.0,WeatherDisplay:10.37,2013-02-24 23:53:00,
2013-02-24 15:58:00,62.4,37.1,30.15,WSW,248,0.0,0.0,39,0.00,OVC,,0.00,0.0,WeatherDisplay:10.37,2013-02-24 23:58:00,
2013-02-24 16:03:00,62.4,37.8,30.15,WSW,248,0.0,0.0,40,0.00,OVC,,0.00,0.0,WeatherDisplay:10.37,2013-02-25 00:03:00,
2013-02-24 16:08:00,62.6,37.9,30.14,WSW,248,0.0,0.0,40,0.00,OVC,,0.00,0.0,WeatherDisplay:10.37,2013-02-25 00:08:00,
2013-02-24 16:14:00,62.6,37.9,30.14,WSW,248,0.0,0.0,40,0.00,OVC,,0.00,0.0,WeatherDisplay:10.37,2013-02-25 00:14:00,
2013-02-24 16:19:00,62.8,38.1,30.14,WSW,248,0.0,0.0,40,0.00,OVC,,0.00,0.0,WeatherDisplay:10.37,2013-02-25 00:19:00,
2013-02-24 16:24:00,62.8,39.3,30.14,WSW,248,0.0,0.0,42,0.00,OVC,,0.00,0.0,WeatherDisplay:10.37,2013-02-25 00:24:00,
2013-02-24 16:29:00,62.8,38.1,30.15,WSW,248,0.0,0.0,40,0.00,OVC,,0.00,0.0,WeatherDisplay:10.37,2013-02-25 00:29:00,
2013-02-24 16:34:00,63.0,38.2,30.15,WSW,248,0.0,0.0,40,0.00,OVC,,0.00,0.0,WeatherDisplay:10.37,2013-02-25 00:34:00,
2013-02-24 16:39:00,63.1,37.8,30.15,WSW,248,0.0,0.0,39,0.00,OVC,,0.00,0.0,WeatherDisplay:10.37,2013-02-25 00:39:00,
2013-02-24 16:44:00,63.0,35.6,30.15,WSW,248,0.0,0.0,36,0.00,OVC,,0.00,0.0,WeatherDisplay:10.37,2013-02-25 00:44:00,
2013-02-24 16:49:00,63.1,34.3,30.15,WSW,248,0.0,0.0,34,0.00,OVC,,0.00,0.0,WeatherDisplay:10.37,2013-02-25 00:49:00,
2013-02-24 16:55:00,63.0,32.6,30.15,WSW,248,0.0,0.0,32,0.00,OVC,,0.00,0.0,WeatherDisplay:10.37,2013-02-25 00:55:00,
2013-02-24 17:00:00,62.8,32.5,30.15,WSW,248,0.0,0.0,32,0.00,OVC,,0.00,0.0,WeatherDisplay:10.37,2013-02-25 01:00:00,
2013-02-24 17:05:00,62.4,32.9,30.15,WSW,248,0.0,0.0,33,0.00,OVC,,0.00,0.0,WeatherDisplay:10.37,2013-02-25 01:05:00,
2013-02-24 17:10:00,62.2,31.2,30.15,WSW,248,0.0,0.0,31,0.00,OVC,,0.00,0.0,WeatherDisplay:10.37,2013-02-25 01:10:00,
2013-02-24 17:15:00,62.2,32.0,30.15,WSW,248,0.0,0.0,32,0.00,OVC,,0.00,0.0,WeatherDisplay:10.37,2013-02-25 01:15:00,
2013-02-24 17:20:00,62.1,31.8,30.15,WSW,248,0.0,0.0,32,0.00,OVC,,0.00,0.0,WeatherDisplay:10.37,2013-02-25 01:20:00,
2013-02-24 17:25:00,61.9,31.7,30.15,WSW,248,0.0,0.0,32,0.00,OVC,,0.00,0.0,WeatherDisplay:10.37,2013-02-25 01:25:00,
2013-02-24 17:30:00,61.5,31.4,30.15,WSW,248,0.0,0.0,32,0.00,OVC,,0.00,0.0,WeatherDisplay:10.37,2013-02-25 01:30:00,
2013-02-24 17:35:00,61.5,31.4,30.15,WSW,248,0.0,0.0,32,0.00,OVC,,0.00,0.0,WeatherDisplay:10.37,2013-02-25 01:35:00,
2013-02-24 17:40:00,61.3,32.0,30.15,WSW,248,0.0,0.0,33,0.00,OVC,,0.00,0.0,WeatherDisplay:10.37,2013-02-25 01:40:00,
2013-02-24 17:45:00,61.0,31.6,30.15,WSW,248,0.0,0.0,33,0.00,OVC,,0.00,0.0,WeatherDisplay:10.37,2013-02-25 01:45:00,
2013-02-24 17:50:00,60.8,31.5,30.16,WSW,248,0.0,0.0,33,0.00,OVC,,0.00,0.0,WeatherDisplay:10.37,2013-02-25 01:50:00,
2013-02-24 17:56:00,60.6,32.1,30.16,WSW,248,0.0,0.0,34,0.00,OVC,,0.00,0.0,WeatherDisplay:10.37,2013-02-25 01:56:00,
2013-02-24 18:01:00,60.3,31.8,30.16,WSW,248,0.0,0.0,34,0.00,CLR,,0.00,0.0,WeatherDisplay:10.37,2013-02-25 02:01:00,
2013-02-24 18:06:00,59.9,32.2,30.16,WSW,248,0.0,0.0,35,0.00,CLR,,0.00,0.0,WeatherDisplay:10.37,2013-02-25 02:06:00,
2013-02-24 18:11:00,59.9,32.2,30.16,WSW,248,0.0,0.0,35,0.00,CLR,,0.00,0.0,WeatherDisplay:10.37,2013-02-25 02:11:00,
2013-02-24 18:17:00,59.4,31.7,30.16,WSW,248,0.0,0.0,35,0.00,CLR,,0.00,0.0,WeatherDisplay:10.37,2013-02-25 02:17:00,
2013-02-24 18:22:00,59.2,32.2,30.16,WSW,248,0.0,0.0,36,0.00,CLR,,0.00,0.0,WeatherDisplay:10.37,2013-02-25 02:22:00,
2013-02-24 18:27:00,59.2,32.2,30.17,WSW,248,0.0,0.0,36,0.00,CLR,,0.00,0.0,WeatherDisplay:10.37,2013-02-25 02:27:00,
2013-02-24 18:32:00,58.6,32.4,30.17,WSW,248,0.0,0.0,37,0.00,CLR,,0.00,0.0,WeatherDisplay:10.37,2013-02-25 02:32:00,
2013-02-24 18:37:00,58.5,38.3,30.17,WSW,248,0.0,0.0,47,0.00,CLR,,0.00,0.0,WeatherDisplay:10.37,2013-02-25 02:37:00,
2013-02-24 18:42:00,57.4,40.9,30.17,WSW,248,0.0,0.0,54,0.00,CLR,,0.00,0.0,WeatherDisplay:10.37,2013-02-25 02:42:00,
2013-02-24 18:47:00,57.2,41.2,30.17,WSW,248,0.0,0.0,55,0.00,CLR,,0.00,0.0,WeatherDisplay:10.37,2013-02-25 02:47:00,
2013-02-24 18:52:00,56.8,41.8,30.17,WSW,248,0.0,0.0,57,0.00,CLR,,0.00,0.0,WeatherDisplay:10.37,2013-02-25 02:52:00,
2013-02-24 18:57:00,56.5,41.4,30.17,WSW,248,0.0,0.0,57,0.00,CLR,,0.00,0.0,WeatherDisplay:10.37,2013-02-25 02:57:00,
2013-02-24 19:02:00,56.3,40.8,30.17,WSW,248,0.0,0.0,56,0.00,CLR,,0.00,0.0,WeatherDisplay:10.37,2013-02-25 03:02:00,
2013-02-24 19:07:00,55.9,39.5,30.19,WSW,248,0.0,0.0,54,0.00,CLR,,0.00,0.0,WeatherDisplay:10.37,2013-02-25 03:07:00,
2013-02-24 19:13:00,55.8,38.4,30.19,WSW,248,0.0,0.0,52,0.00,CLR,,0.00,0.0,WeatherDisplay:10.37,2013-02-25 03:13:00,
2013-02-24 19:18:00,55.6,37.7,30.19,WSW,248,0.0,0.0,51,0.00,CLR,,0.00,0.0,WeatherDisplay:10.37,2013-02-25 03:18:00,
2013-02-24 19:23:00,55.2,36.4,30.19,WSW,248,0.0,0.0,49,0.00,CLR,,0.00,0.0,WeatherDisplay:10.37,2013-02-25 03:23:00,
2013-02-24 19:28:00,55.0,36.2,30.19,WSW,248,0.0,0.0,49,0.00,CLR,,0.00,0.0,WeatherDisplay:10.37,2013-02-25 03:28:00,
2013-02-24 19:34:00,54.9,35.5,30.19,WSW,248,0.0,0.0,48,0.00,CLR,,0.00,0.0,WeatherDisplay:10.37,2013-02-25 03:34:00,
2013-02-24 19:39:00,54.5,35.2,30.19,WSW,248,0.0,0.0,48,0.00,CLR,,0.00,0.0,WeatherDisplay:10.37,2013-02-25 03:39:00,
2013-02-24 19:44:00,54.1,34.9,30.19,WSW,248,0.0,0.0,48,0.00,CLR,,0.00,0.0,WeatherDisplay:10.37,2013-02-25 03:44:00,
2013-02-24 19:49:00,54.0,34.7,30.19,WSW,248,0.0,0.0,48,0.00,CLR,,0.00,0.0,WeatherDisplay:10.37,2013-02-25 03:49:00,
2013-02-24 19:54:00,53.8,34.5,30.19,WSW,248,0.0,0.0,48,0.00,CLR,,0.00,0.0,WeatherDisplay:10.37,2013-02-25 03:54:00,
2013-02-24 20:00:00,53.6,34.4,30.19,WSW,248,0.0,0.0,48,0.00,CLR,,0.00,0.0,WeatherDisplay:10.37,2013-02-25 04:00:00,
2013-02-24 20:05:00,53.4,34.7,30.19,WSW,248,0.0,0.0,49,0.00,CLR,,0.00,0.0,WeatherDisplay:10.37,2013-02-25 04:05:00,
2013-02-24 20:10:00,53.4,35.7,30.21,WSW,248,0.0,0.0,51,0.00,CLR,,0.00,0.0,WeatherDisplay:10.37,2013-02-25 04:10:00,
2013-02-24 20:15:00,53.2,35.1,30.21,WSW,248,0.0,0.0,50,0.00,CLR,,0.00,0.0,WeatherDisplay:10.37,2013-02-25 04:15:00,
2013-02-24 20:21:00,52.9,34.7,30.21,WSW,248,0.0,0.0,50,0.00,CLR,,0.00,0.0,WeatherDisplay:10.37,2013-02-25 04:21:00,
2013-02-24 20:26:00,52.7,35.6,30.21,WSW,248,0.0,0.0,52,0.00,CLR,,0.00,0.0,WeatherDisplay:10.37,2013-02-25 04:26:00,
2013-02-24 20:31:00,52.3,35.2,30.21,WSW,248,0.0,0.0,52,0.00,CLR,,0.00,0.0,WeatherDisplay:10.37,2013-02-25 04:31:00,
2013-02-24 20:36:00,52.3,35.7,30.21,WSW,248,0.0,0.0,53,0.00,CLR,,0.00,0.0,WeatherDisplay:10.37,2013-02-25 04:36:00,
2013-02-24 20:41:00,52.0,35.4,30.21,WSW,248,0.0,0.0,53,0.00,CLR,,0.00,0.0,WeatherDisplay:10.37,2013-02-25 04:41:00,
2013-02-24 20:46:00,52.0,35.4,30.22,WSW,248,0.0,0.0,53,0.00,CLR,,0.00,0.0,WeatherDisplay:10.37,2013-02-25 04:46:00,
2013-02-24 20:51:00,51.6,35.0,30.22,WSW,248,0.0,0.0,53,0.00,CLR,,0.00,0.0,WeatherDisplay:10.37,2013-02-25 04:51:00,
2013-02-24 20:57:00,51.1,34.5,30.22,WSW,248,0.0,0.0,53,0.00,CLR,,0.00,0.0,WeatherDisplay:10.37,2013-02-25 04:57:00,
2013-02-24 21:00:00,51.3,35.2,30.22,WSW,248,0.0,0.0,54,0.00,CLR,,0.00,0.0,WeatherDisplay:10.37,2013-02-25 05:00:00,
2013-02-24 21:01:00,51.1,35.0,30.22,WSW,248,0.0,0.0,54,0.00,CLR,,0.00,0.0,WeatherDisplay:10.37,2013-02-25 05:01:00,
2013-02-24 21:06:00,50.7,34.7,30.22,WSW,248,0.0,0.0,54,0.00,CLR,,0.00,0.0,WeatherDisplay:10.37,2013-02-25 05:06:00,
2013-02-24 21:11:00,50.5,34.5,30.22,WSW,248,0.0,0.0,54,0.00,CLR,,0.00,0.0,WeatherDisplay:10.37,2013-02-25 05:11:00,
2013-02-24 21:16:00,50.2,34.6,30.22,WSW,248,0.0,0.0,55,0.00,CLR,,0.00,0.0,WeatherDisplay:10.37,2013-02-25 05:16:00,
2013-02-24 21:21:00,50.2,34.6,30.22,WSW,248,0.0,0.0,55,0.00,CLR,,0.00,0.0,WeatherDisplay:10.37,2013-02-25 05:21:00,
2013-02-24 21:26:00,49.8,34.3,30.22,WSW,248,0.0,0.0,55,0.00,CLR,,0.00,0.0,WeatherDisplay:10.37,2013-02-25 05:26:00,
2013-02-24 21:32:00,49.6,34.6,30.22,WSW,248,0.0,0.0,56,0.00,CLR,,0.00,0.0,WeatherDisplay:10.37,2013-02-25 05:32:00,
2013-02-24 21:37:00,49.5,34.4,30.22,WSW,248,0.0,0.0,56,0.00,CLR,,0.00,0.0,WeatherDisplay:10.37,2013-02-25 05:37:00,
2013-02-24 21:42:00,49.5,34.8,30.22,WSW,248,0.0,0.0,57,0.00,CLR,,0.00,0.0,WeatherDisplay:10.37,2013-02-25 05:42:00,
2013-02-24 21:47:00,49.3,35.1,30.23,WSW,248,0.0,0.0,58,0.00,CLR,,0.00,0.0,WeatherDisplay:10.37,2013-02-25 05:47:00,
2013-02-24 21:52:00,49.3,35.1,30.23,WSW,248,0.0,0.0,58,0.00,CLR,,0.00,0.0,WeatherDisplay:10.37,2013-02-25 05:52:00,
2013-02-24 21:57:00,49.1,34.9,30.23,WSW,248,0.0,0.0,58,0.00,CLR,,0.00,0.0,WeatherDisplay:10.37,2013-02-25 05:57:00,
2013-02-24 22:03:00,48.9,34.8,30.23,WSW,248,0.0,0.0,58,0.00,CLR,,0.00,0.0,WeatherDisplay:10.37,2013-02-25 06:03:00,
2013-02-24 22:08:00,48.6,34.4,30.23,WSW,248,0.0,0.0,58,0.00,CLR,,0.00,0.0,WeatherDisplay:10.37,2013-02-25 06:08:00,
2013-02-24 22:13:00,48.6,35.3,30.23,WSW,248,0.0,0.0,60,0.00,CLR,,0.00,0.0,WeatherDisplay:10.37,2013-02-25 06:13:00,
2013-02-24 22:18:00,48.6,36.5,30.23,WSW,248,0.0,0.0,63,0.00,CLR,,0.00,0.0,WeatherDisplay:10.37,2013-02-25 06:18:00,
2013-02-24 22:23:00,48.6,36.5,30.23,WSW,248,0.0,0.0,63,0.00,CLR,,0.00,0.0,WeatherDisplay:10.37,2013-02-25 06:23:00,
2013-02-24 22:28:00,48.6,36.5,30.24,WSW,248,0.0,0.0,63,0.00,CLR,,0.00,0.0,WeatherDisplay:10.37,2013-02-25 06:28:00,
2013-02-24 22:33:00,48.4,36.0,30.24,WSW,248,0.0,0.0,62,0.00,CLR,,0.00,0.0,WeatherDisplay:10.37,2013-02-25 06:33:00,
2013-02-24 22:38:00,48.4,36.0,30.24,WSW,248,0.0,0.0,62,0.00,CLR,,0.00,0.0,WeatherDisplay:10.37,2013-02-25 06:38:00,
2013-02-24 22:44:00,48.4,36.4,30.24,WSW,248,0.0,0.0,63,0.00,CLR,,0.00,0.0,WeatherDisplay:10.37,2013-02-25 06:44:00,
2013-02-24 22:49:00,48.4,36.0,30.25,WSW,248,0.0,0.0,62,0.00,CLR,,0.00,0.0,WeatherDisplay:10.37,2013-02-25 06:49:00,
2013-02-24 22:54:00,48.2,35.4,30.25,WSW,248,0.0,0.0,61,0.00,CLR,,0.00,0.0,WeatherDisplay:10.37,2013-02-25 06:54:00,
2013-02-24 22:59:00,48.2,35.8,30.25,WSW,248,0.0,0.0,62,0.00,CLR,,0.00,0.0,WeatherDisplay:10.37,2013-02-25 06:59:00,
2013-02-24 23:04:00,48.0,36.0,30.25,WSW,248,0.0,0.0,63,0.00,CLR,,0.00,0.0,WeatherDisplay:10.37,2013-02-25 07:04:00,
2013-02-24 23:09:00,47.8,35.8,30.25,WSW,248,0.0,0.0,63,0.00,CLR,,0.00,0.0,WeatherDisplay:10.37,2013-02-25 07:09:00,
2013-02-24 23:14:00,47.7,35.7,30.25,WSW,248,0.0,0.0,63,0.00,CLR,,0.00,0.0,WeatherDisplay:10.37,2013-02-25 07:14:00,
2013-02-24 23:19:00,47.7,35.7,30.25,WSW,248,0.0,0.0,63,0.00,CLR,,0.00,0.0,WeatherDisplay:10.37,2013-02-25 07:19:00,
2013-02-24 23:24:00,47.7,36.1,30.25,WSW,248,0.0,0.0,64,0.00,CLR,,0.00,0.0,WeatherDisplay:10.37,2013-02-25 07:24:00,
2013-02-24 23:29:00,47.5,36.7,30.26,WSW,248,0.0,0.0,66,0.00,CLR,,0.00,0.0,WeatherDisplay:10.37,2013-02-25 07:29:00,
2013-02-24 23:35:00,47.3,36.5,30.26,WSW,248,0.0,0.0,66,0.00,CLR,,0.00,0.0,WeatherDisplay:10.37,2013-02-25 07:35:00,
2013-02-24 23:40:00,47.1,36.0,30.26,WSW,248,0.0,0.0,65,0.00,CLR,,0.00,0.0,WeatherDisplay:10.37,2013-02-25 07:40:00,
2013-02-24 23:45:00,47.1,36.0,30.26,WSW,248,0.0,0.0,65,0.00,CLR,,0.00,0.0,WeatherDisplay:10.37,2013-02-25 07:45:00,
2013-02-24 23:50:00,46.8,35.6,30.26,WSW,248,0.0,0.0,65,0.00,CLR,,0.00,0.0,WeatherDisplay:10.37,2013-02-25 07:50:00,
2013-02-24 23:55:00,46.9,36.2,30.26,WSW,248,0.0,0.0,66,0.00,CLR,,0.00,0.0,WeatherDisplay:10.37,2013-02-25 07:55:00,